Troutdale, OR

4:53 PM PST on February 19, 2017 (GMT -0800)
Portland-Troutdale

Weather History for KTTD - November, 2011

Change the Weather History Date:

Monday, November 21, 2011

  Actual Average Record
Temperature  
Mean Temperature 44 °F 44 °F  
Max Temperature 49 °F 51 °F 64 °F (2002)
Min Temperature 38 °F 38 °F 26 °F (1977)
Degree Days  
Heating Degree Days 21 21  
Month to date heating degree days 434 382  
Cooling Degree Days 0 0  
Month to date cooling degree days 0 0  
Moisture  
Dew Point 39 °F    
Average Humidity 88    
Maximum Humidity 100    
Minimum Humidity 76    
Precipitation  
Precipitation 0.57 in 0.25 in 1.28 in (1992)
Month to date precipitation 2.55 5.10  
Year to date precipitation 31.20 37.62  
Snow  
Snow 0.00 in - - ()
Month to date snowfall 0.0  
Snow Depth 0.00 in    
Sea Level Pressure  
Sea Level Pressure 29.80 in    
Wind  
Wind Speed 9 mph (East)    
Max Wind Speed 21 mph    
Max Gust Speed 25 mph    
Visibility 8 miles    
Events Rain    
T = Trace of Precipitation, MM = Missing Value Source: NWS Daily Summary

Daily Weather History Graph

Daily Weather History Graph

Search for Another Location

Airport or City:

Trip Planner

Search our weather history database for the weather conditions in past years. The results will help you decide how hot, cold, wet, or windy it might be!

Date:

Astronomy

Nov. 21, 2011 Rise Set
Actual Time 7:16 AM PST 4:33 PM PST
Civil Twilight 6:44 AM PST 5:06 PM PST
Nautical Twilight 6:07 AM PST 5:42 PM PST
Astronomical Twilight 5:32 AM PST 6:18 PM PST
Moon 2:51 AM PST (11/21) 2:07 PM PST (11/21)
Length of Visible Light 10h 22m
Length of Day
9h 17m
Waning Crescent, 16% of the Moon is Illuminated
Nov 21
Waning Crescent
Nov 24
New
Dec 2
First Quarter
Dec 10
Full
Dec 17
Last Quarter

Hourly Weather History & Observations

Time (PST) Temp. Windchill Dew Point Humidity Pressure Visibility Wind Dir Wind Speed Gust Speed Precip Events Conditions
12:53 AM 39.9 °F 31.8 °F 32.0 °F 73% 29.86 in 10.0 mi East 15.0 mph 19.6 mph N/A   Overcast
1:53 AM 37.9 °F 32.7 °F 33.1 °F 83% 29.85 in 10.0 mi Variable 6.9 mph - N/A   Overcast
2:53 AM 39.9 °F 35.8 °F 33.1 °F 77% 29.83 in 10.0 mi ESE 5.8 mph 21.9 mph N/A   Overcast
3:38 AM 39.2 °F 30.5 °F 33.8 °F 81% 29.81 in 10.0 mi East 16.1 mph 24.2 mph 0.00 in Rain Light Rain
3:53 AM 39.9 °F 31.8 °F 34.0 °F 79% 29.81 in 10.0 mi East 15.0 mph - 0.00 in   Overcast
4:53 AM 39.9 °F 32.9 °F 35.1 °F 83% 29.79 in 10.0 mi East 11.5 mph - 0.00 in   Overcast
5:53 AM 39.0 °F 31.8 °F 36.0 °F 89% 29.78 in 10.0 mi East 11.5 mph 21.9 mph 0.01 in Rain Light Rain
6:53 AM 39.0 °F 29.3 °F 36.0 °F 89% 29.77 in 10.0 mi East 19.6 mph 24.2 mph 0.01 in Rain Light Rain
7:53 AM 39.0 °F 32.8 °F 37.0 °F 93% 29.82 in 6.0 mi ENE 9.2 mph - 0.04 in Rain Rain
8:38 AM 39.2 °F 31.2 °F 37.4 °F 93% 29.84 in 5.0 mi East 13.8 mph 18.4 mph 0.06 in Rain Light Rain
8:53 AM 39.0 °F 31.8 °F 37.0 °F 93% 29.85 in 6.0 mi East 11.5 mph 19.6 mph 0.08 in Rain Light Rain
9:24 AM 39.2 °F 32.0 °F 37.4 °F 93% 29.85 in 4.0 mi East 11.5 mph - 0.03 in Rain Light Rain
9:53 AM 39.0 °F 32.8 °F 37.9 °F 96% 29.86 in 6.0 mi ENE 9.2 mph - 0.04 in Rain Light Rain
10:36 AM 46.4 °F 45.2 °F 42.8 °F 87% 29.87 in 6.0 mi Variable 3.5 mph - 0.01 in Rain Light Rain
10:53 AM 48.0 °F - 45.0 °F 89% 29.87 in 7.0 mi South 12.7 mph 21.9 mph 0.02 in Rain Light Rain
11:53 AM 42.1 °F 36.6 °F 41.0 °F 96% 29.86 in 3.0 mi East 9.2 mph - 0.01 in Rain Light Rain
11:58 AM 42.8 °F 38.0 °F 41.0 °F 93% 29.86 in 4.0 mi East 8.1 mph - 0.00 in Rain Light Rain
12:53 PM 43.0 °F 41.3 °F 42.1 °F 97% 29.85 in 10.0 mi ENE 3.5 mph - 0.00 in   Overcast
1:53 PM 43.0 °F 39.5 °F 42.1 °F 97% 29.83 in 10.0 mi East 5.8 mph - 0.00 in   Overcast
2:53 PM 43.0 °F 41.3 °F 42.1 °F 97% 29.80 in 10.0 mi ENE 3.5 mph - 0.00 in   Overcast
3:53 PM 42.1 °F 40.2 °F 41.0 °F 96% 29.80 in 10.0 mi ENE 3.5 mph - 0.01 in Rain Light Rain
4:53 PM 43.0 °F 39.5 °F 42.1 °F 97% 29.79 in 8.0 mi ENE 5.8 mph - 0.05 in Rain Light Rain
5:53 PM 42.1 °F 36.6 °F 41.0 °F 96% 29.78 in 9.0 mi East 9.2 mph - 0.03 in Rain Light Rain
6:53 PM 43.0 °F 38.2 °F 41.0 °F 93% 29.76 in 9.0 mi ENE 8.1 mph - 0.02 in Rain Light Rain
7:53 PM 42.1 °F 34.5 °F 41.0 °F 96% 29.74 in 8.0 mi East 15.0 mph - 0.03 in Rain Light Rain
8:53 PM 43.0 °F 35.7 °F 41.0 °F 93% 29.73 in 9.0 mi East 15.0 mph - 0.04 in Rain Light Rain
9:53 PM 43.0 °F 37.7 °F 42.1 °F 97% 29.72 in 9.0 mi East 9.2 mph - 0.04 in Rain Light Rain
10:22 PM 42.8 °F 38.0 °F 42.8 °F 100% 29.72 in 7.0 mi East 8.1 mph - 0.03 in Rain Light Rain
10:44 PM 42.8 °F 37.5 °F 42.8 °F 100% 29.72 in 7.0 mi East 9.2 mph - 0.05 in Rain Light Rain
10:51 PM 42.8 °F 39.3 °F 42.8 °F 100% 29.72 in 7.0 mi ENE 5.8 mph - 0.06 in Rain Light Rain
11:22 PM 42.8 °F 38.0 °F 42.8 °F 100% 29.72 in 7.0 mi ENE 8.1 mph - 0.03 in Rain Light Rain
11:53 PM 43.0 °F 39.5 °F 42.1 °F 97% 29.72 in 6.0 mi ENE 5.8 mph - 0.07 in Rain Light Rain